Location: Iesi
(43.5167°N, 13.2333°E)
Time: 01:46:17
(UTC+00:00)

Cosmos 1833 Rocket - Pass Details

Date: 08 August 2020
Orbit: 831 x 841 km, 71.0° (Epoch: 27 September)

Event Time Altitude Azimuth Distance (km) Brightness Sun altitude
Rises 19:08:00 0° 183° (S) 3,359 5.5 -8.5°
Reaches altitude 10° 19:10:31 10° 176° (S) 2,431 4.8 -8.9°
Maximum altitude 19:15:45 43° 107° (ESE) 1,162 3.0 -9.7°
Drops below altitude 10° 19:21:00 10° 38° (NE) 2,453 5.1 -10.5°
Sets 19:23:33 0° 31° (NNE) 3,393 5.9 -10.9°
